CEST,Max TemperatureF,Mean TemperatureF,Min TemperatureF,Max Dew PointF,MeanDew PointF,Min DewpointF,Max Humidity, Mean Humidity, Min Humidity, Max Sea Level PressureIn, Mean Sea Level PressureIn, Min Sea Level PressureIn, Max VisibilityMiles, Mean VisibilityMiles, Min VisibilityMiles, Max Wind SpeedMPH, Mean Wind SpeedMPH, Max Gust SpeedMPH,PrecipitationIn, CloudCover, Events, WindDirDegrees
2013-6-1,77,70,60,59,51,43,83,56,29,30.04,29.99,29.95,19,7,6,20,10,25,0.00,1,,286
2013-6-2,79,64,49,55,48,41,88,55,19,30.07,30.04,30.01,16,7,6,14,3,,0.00,1,,220
2013-6-3,75,63,51,59,53,45,94,64,31,30.08,30.05,30.04,19,8,6,14,5,20,0.00,1,,219
2013-6-4,75,62,50,59,55,50,94,71,44,30.06,30.03,29.98,19,8,6,14,4,,0.00,1,,230
2013-6-5,81,67,53,55,51,45,88,58,23,30.01,29.98,29.95,19,8,6,13,4,,0.00,1,,69
2013-6-6,80,68,57,61,57,52,100,69,37,30.09,30.02,29.98,16,5,0,16,7,,0.00,1,Fog,331
2013-6-7,75,65,55,66,59,54,94,77,54,30.09,30.05,30.01,19,7,6,14,4,,0.02,1,,236
2013-6-8,76,70,63,64,58,43,94,69,31,30.05,29.96,29.92,19,6,4,21,6,23,0.00,2,Rain,203
2013-6-9,75,68,61,63,58,50,88,66,41,29.95,29.89,29.86,19,7,6,20,10,,0.00,2,,230
2013-6-10,81,69,57,61,56,50,94,59,27,30.06,29.96,29.89,19,7,6,13,7,,0.00,2,,238
2013-6-11,77,66,56,66,62,54,94,80,62,30.09,30.06,30.04,16,7,5,20,5,,0.00,1,,209
2013-6-12,80,70,60,64,59,46,94,66,23,30.16,30.12,30.09,19,9,6,15,4,,0.00,1,,233
2013-6-13,84,70,57,64,56,48,88,60,25,30.12,30.08,30.04,19,16,6,15,4,,0.00,1,,236
2013-6-14,83,72,60,66,61,56,88,66,32,30.09,30.05,30.01,17,13,9,16,5,,0.00,,,195
2013-6-15,93,76,58,63,54,45,88,51,20,30.05,30.03,29.98,19,16,12,14,3,,0.00,,,166
2013-6-16,96,80,63,59,50,37,68,37,10,30.04,29.97,29.89,19,19,19,13,6,,0.00,,,96
2013-6-17,96,80,64,72,62,55,89,58,26,29.92,29.82,29.77,19,15,6,14,5,,0.00,1,,165
2013-6-18,79,74,69,70,67,64,94,79,56,29.86,29.80,29.77,6,6,5,15,6,,0.00,3,,208
2013-6-19,80,72,63,64,60,50,83,64,34,30.01,29.92,29.83,19,7,5,20,9,,0.00,1,,232
2013-6-20,78,68,57,66,61,54,94,74,51,30.09,30.03,30.01,19,7,6,17,5,,0.00,1,,214
2013-6-21,80,70,59,66,61,57,94,72,43,30.12,30.07,30.04,19,7,6,15,4,,0.00,1,,212
2013-6-22,82,72,63,66,63,58,88,70,49,30.15,30.13,30.09,19,7,6,16,5,,0.00,2,,200
2013-6-23,79,69,59,66,63,57,94,74,50,30.16,30.13,30.12,19,7,6,15,5,,0.00,1,,220
2013-6-24,77,72,66,64,60,57,83,67,48,30.24,30.19,30.15,16,6,5,12,6,14,0.00,3,,78
2013-6-25,77,69,61,61,58,56,82,64,45,30.24,30.21,30.18,16,7,6,13,4,,0.00,4,,197
2013-6-26,78,70,61,61,58,54,82,64,34,30.24,30.22,30.21,19,7,6,21,4,,0.00,2,,182
2013-6-27,82,68,54,59,56,46,94,62,21,30.24,30.19,30.15,16,7,6,17,5,,0.00,1,,110
2013-6-28,80,68,57,59,57,54,88,62,34,30.24,30.20,30.18,16,7,6,17,4,,0.00,1,,195
2013-6-29,81,70,58,63,58,54,82,63,28,30.27,30.24,30.18,19,7,6,17,5,,0.00,1,,232
2013-6-30,81,70,59,64,60,57,88,65,35,30.22,30.15,30.06,17,7,6,18,4,,0.00,1,,289